Language: 


Des rapports , des résumés tant et plus, au choix de chacun....


Données statistiques de la station
Quotidien Rapport Nil La, TWC- Unités:  Métrique    Anglais   les deux
« Précédent Jour
Suivant Jour »
Quotidien Hebdomadaire Mensuel Annuel Actuel
  Haut: Bas: Moyen:
Température: -17.8 °C -18.9 °C -18.3 °C
Pt de rosée: -17.8 °C -21.1 °C -20.8 °C
Humidité: Humidity % 69 % 73 %
Vitesse du vent: 0 km/h 0 km/h 16.3 km/h
Rafales: 0 km/h - -
Vent:- - ENE
Pression: 0 hPa 34476.3 hPa -
Précipitation: 0 mm    
Historical Graphs
 
 
Données statistiques pour Nil La, TWC-
Heure Température Point de rosée Pression Vent Vitesse du vent Refales Humidité Pluie (taux horaire)
-17.8 °C -17.8 °C 0 hPa Calm     Humidity % 0 mm
00:01 -17.5 °C -20 °C 34567.7 hPa ENE 16.9 km/h 32.3 km/h 69 % 0 mm
00:06 -17.5 °C -20 °C 34567.7 hPa ENE 18.7 km/h 32.3 km/h 69 % 0 mm
00:11 -17.5 °C -20 °C 34567.7 hPa ENE 20.9 km/h 33.6 km/h 69 % 0 mm
00:16 -17.6 °C -20.6 °C 34567.7 hPa ENE 19.2 km/h 33.6 km/h 69 % 0 mm
00:21 -17.6 °C -20.6 °C 34567.7 hPa NE 14.5 km/h 20.9 km/h 69 % 0 mm
00:26 -17.6 °C -20 °C 34567.7 hPa ENE 20.9 km/h 22 km/h 70 % 0 mm
00:31 -17.6 °C -20 °C 34567.7 hPa ENE 19.2 km/h 22 km/h 70 % 0 mm
00:36 -17.7 °C -20.6 °C 34567.7 hPa ENE 15 km/h 26.7 km/h 70 % 0 mm
00:41 -17.7 °C -20.6 °C 34567.7 hPa NNE 15.6 km/h 26.7 km/h 70 % 0 mm
00:46 -17.7 °C -20 °C 34567.7 hPa East 15 km/h 25.4 km/h 71 % 0 mm
00:51 -17.7 °C -20 °C 34567.7 hPa ENE 20.3 km/h 25.4 km/h 71 % 0 mm
00:56 -17.7 °C -20 °C 34567.7 hPa NE 14.5 km/h 27.2 km/h 71 % 0 mm
01:01 -17.7 °C -20 °C 34533.8 hPa ENE 14 km/h 27.2 km/h 71 % 0 mm
01:06 -17.8 °C -20.6 °C 34533.8 hPa NE 14.5 km/h 22.5 km/h 71 % 0 mm
01:11 -17.8 °C -20.6 °C 34533.8 hPa ENE 16.3 km/h 22.5 km/h 71 % 0 mm
01:16 -17.8 °C -20.6 °C 34533.8 hPa NE 14 km/h 20.9 km/h 71 % 0 mm
01:21 -17.9 °C -20.6 °C 34533.8 hPa ENE 9.3 km/h 19.6 km/h 72 % 0 mm
01:26 -17.9 °C -20.6 °C 34533.8 hPa ENE 19.6 km/h 22 km/h 72 % 0 mm
01:31 -17.9 °C -20.6 °C 34533.8 hPa ENE 10.3 km/h 22 km/h 72 % 0 mm
01:36 -18 °C -20.6 °C 34533.8 hPa NE 14 km/h 20.9 km/h 72 % 0 mm
01:42 -18.1 °C -21.1 °C 34533.8 hPa NE 9.8 km/h 19.6 km/h 73 % 0 mm
01:47 -18.1 °C -21.1 °C 34533.8 hPa NNE 16.9 km/h 23.8 km/h 73 % 0 mm
01:52 -18.1 °C -21.1 °C 34533.8 hPa NE 15.6 km/h 23.8 km/h 73 % 0 mm
01:57 -18.1 °C -21.1 °C 34533.8 hPa NE 19.2 km/h 22.5 km/h 73 % 0 mm
02:02 -18.1 °C -21.1 °C 34533.8 hPa NNE 19.2 km/h 23 km/h 73 % 0 mm
02:07 -18.1 °C -20.6 °C 34533.8 hPa NE 18.7 km/h 23 km/h 74 % 0 mm
02:12 -18.1 °C -20.6 °C 34533.8 hPa NNE 15.6 km/h 27.2 km/h 74 % 0 mm
02:17 -18.2 °C -21.1 °C 34533.8 hPa NNE 14 km/h 27.2 km/h 73 % 0 mm
02:22 -18.2 °C -21.1 °C 34533.8 hPa NNE 14.5 km/h 16.9 km/h 73 % 0 mm
02:27 -18.3 °C -21.1 °C 34533.8 hPa NE 19.2 km/h 19.2 km/h 74 % 0 mm
02:32 -18.3 °C -21.1 °C 34533.8 hPa NE 16.9 km/h 19.2 km/h 74 % 0 mm
02:37 -18.3 °C -20.6 °C 34533.8 hPa NE 12.7 km/h 19.6 km/h 75 % 0 mm
02:42 -18.3 °C -20.6 °C 34533.8 hPa NE 19.2 km/h 22.5 km/h 75 % 0 mm
02:47 -18.3 °C -20.6 °C 34533.8 hPa NNE 20.9 km/h 29 km/h 76 % 0 mm
02:52 -18.3 °C -20.6 °C 34533.8 hPa NE 19.6 km/h 29 km/h 75 % 0 mm
02:57 -18.3 °C -20.6 °C 34533.8 hPa NE 19.6 km/h 24.3 km/h 76 % 0 mm
03:02 -18.3 °C -20.6 °C 34496.6 hPa NE 22 km/h 24.3 km/h 75 % 0 mm
03:07 -18.4 °C -20.6 °C 34496.6 hPa NE 15.6 km/h 22 km/h 75 % 0 mm
03:12 -18.4 °C -21.1 °C 34496.6 hPa NNE 17.4 km/h 22 km/h 75 % 0 mm
03:17 -18.4 °C -21.1 °C 34496.6 hPa ENE 16.3 km/h 22 km/h 76 % 0 mm
03:22 -18.4 °C -21.1 °C 34496.6 hPa North 15.6 km/h 22 km/h 76 % 0 mm
03:27 -18.5 °C -21.1 °C 34496.6 hPa NNE 14.5 km/h 22.5 km/h 76 % 0 mm
03:32 -18.5 °C -21.1 °C 34496.6 hPa NNE 20.3 km/h 22.5 km/h 76 % 0 mm
03:37 -18.6 °C -21.1 °C 34496.6 hPa NNE 10.3 km/h 22.5 km/h 76 % 0 mm
03:42 -18.6 °C -21.1 °C 34496.6 hPa NE 19.6 km/h 22 km/h 76 % 0 mm
03:47 -18.6 °C -20.6 °C 34476.3 hPa NE 28.5 km/h 28.5 km/h 77 % 0 mm
03:53 -18.5 °C -21.1 °C 34476.3 hPa ENE 19.2 km/h 31.4 km/h 76 % 0 mm
03:58 -18.5 °C -21.1 °C 34476.3 hPa NE 19.6 km/h 31.4 km/h 76 % 0 mm
04:03 -18.5 °C -21.1 °C 34496.6 hPa NNE 19.2 km/h 24.8 km/h 76 % 0 mm
04:08 -18.4 °C -21.1 °C 34496.6 hPa NE 19.6 km/h 24.8 km/h 75 % 0 mm
04:13 -18.4 °C -21.1 °C 34496.6 hPa ENE 20.9 km/h 23.8 km/h 75 % 0 mm
04:18 -18.4 °C -21.1 °C 34496.6 hPa ENE 22 km/h 25.4 km/h 75 % 0 mm
04:23 -18.4 °C -21.1 °C 34496.6 hPa NE 19.2 km/h 25.4 km/h 75 % 0 mm
04:28 -18.5 °C -21.1 °C 34496.6 hPa East 15 km/h 22.5 km/h 75 % 0 mm
04:33 -18.5 °C -21.1 °C 34496.6 hPa NE 18.7 km/h 22.5 km/h 75 % 0 mm
04:38 -18.5 °C -21.1 °C 34496.6 hPa NE 16.9 km/h 22.5 km/h 75 % 0 mm
04:43 -18.6 °C -21.1 °C 34496.6 hPa NNE 16.9 km/h 22.5 km/h 75 % 0 mm
04:48 -18.6 °C -21.1 °C 34496.6 hPa ENE 12.2 km/h 22.5 km/h 75 % 0 mm
04:53 -18.6 °C -21.1 °C 34496.6 hPa ENE 20.3 km/h 22.5 km/h 75 % 0 mm
04:58 -18.6 °C -21.1 °C 34496.6 hPa NE 14.5 km/h 20.9 km/h 75 % 0 mm
05:03 -18.6 °C -21.1 °C 34496.6 hPa ENE 18.7 km/h 20.9 km/h 75 % 0 mm
05:08 -18.6 °C -21.1 °C 34496.6 hPa NE 22 km/h 25.4 km/h 75 % 0 mm
05:13 -18.6 °C -21.1 °C 34496.6 hPa NE 20.3 km/h 25.4 km/h 75 % 0 mm
05:18 -18.6 °C -21.1 °C 34476.3 hPa East 19.6 km/h 20.9 km/h 75 % 0 mm
05:23 -18.6 °C -21.1 °C 34476.3 hPa ENE 12.7 km/h 20.3 km/h 75 % 0 mm
05:28 -18.6 °C -21.1 °C 34476.3 hPa ENE 14.5 km/h 22 km/h 75 % 0 mm
05:33 -18.7 °C -21.1 °C 34496.6 hPa ENE 22 km/h 22 km/h 75 % 0 mm
05:38 -18.7 °C -21.1 °C 34496.6 hPa NE 14 km/h 22 km/h 75 % 0 mm
05:43 -18.7 °C -21.1 °C 34496.6 hPa ENE 14 km/h 22 km/h 76 % 0 mm
05:48 -18.7 °C -21.1 °C 34476.3 hPa ENE 14.5 km/h 20.3 km/h 76 % 0 mm
05:53 -18.7 °C -21.1 °C 34476.3 hPa NE 15.6 km/h 19.2 km/h 76 % 0 mm
05:58 -18.7 °C -21.1 °C 34476.3 hPa ENE 14 km/h 19.6 km/h 76 % 0 mm
06:03 -18.7 °C -21.1 °C 34476.3 hPa NE 16.9 km/h 19.6 km/h 76 % 0 mm
06:09 -18.7 °C -21.1 °C 34476.3 hPa ENE 15 km/h 22.5 km/h 76 % 0 mm
06:14 -18.7 °C -21.1 °C 34476.3 hPa NE 20.9 km/h 22.5 km/h 76 % 0 mm
06:19 -18.7 °C -21.1 °C 34496.6 hPa ENE 16.3 km/h 27.2 km/h 76 % 0 mm
06:24 -18.7 °C -21.1 °C 34496.6 hPa ENE 10.3 km/h 27.2 km/h 76 % 0 mm
06:29 -18.7 °C -21.1 °C 34496.6 hPa NE 24.3 km/h 25.4 km/h 76 % 0 mm
06:34 -18.7 °C -21.1 °C 34496.6 hPa East 22 km/h 25.4 km/h 75 % 0 mm
06:39 -18.7 °C -21.1 °C 34496.6 hPa NNE 14.5 km/h 24.3 km/h 75 % 0 mm
06:44 -18.7 °C -21.1 °C 34496.6 hPa ENE 16.3 km/h 22.5 km/h 75 % 0 mm
06:49 -18.7 °C -21.1 °C 34496.6 hPa NE 14.5 km/h 22.5 km/h 75 % 0 mm
06:54 -18.7 °C -21.1 °C 34496.6 hPa ESE 16.3 km/h 22 km/h 75 % 0 mm
06:59 -18.8 °C -21.1 °C 34476.3 hPa ENE 8 km/h 22 km/h 75 % 0 mm
07:04 -18.8 °C -21.1 °C 34476.3 hPa ENE 10.3 km/h 22 km/h 75 % 0 mm
07:09 -18.8 °C -21.1 °C 34476.3 hPa ENE 14 km/h 19.6 km/h 75 % 0 mm
07:14 -18.8 °C -21.1 °C 34476.3 hPa East 15 km/h 19.6 km/h 75 % 0 mm
07:19 -18.8 °C -21.1 °C 34476.3 hPa ENE 4.2 km/h 16.3 km/h 75 % 0 mm
07:24 -18.8 °C -21.1 °C 34476.3 hPa Calm   16.9 km/h 75 % 0 mm
07:29 -18.9 °C -21.1 °C 34496.6 hPa East 11.1 km/h 19.2 km/h 76 % 0 mm
07:34 -18.9 °C -21.1 °C 34496.6 hPa NNE 12.7 km/h 19.2 km/h 76 % 0 mm
07:39 -18.8 °C -21.1 °C 34496.6 hPa NNE 15.6 km/h 27.2 km/h 77 % 0 mm
Le Gheer Warneton
Courtoisie de Weather Underground - 1.5 mb

Mise a jour : 23/02/2018 07:41:11
Généré par Cumulus 1.9.4 (1099)